Wind_Speed
11 7 4 4 3 4 5 3 3 3 3 4 5 4 4 4 3 3 4 4 4 5 8 11 15 19 22 24 26 27 28 27 27 27 27 28 28 28 27 28 27 26 25 24 23 23 22 21 20 20 20 19 18 16 15 14 12 10 9 8 7 6 6 5 5 5 6 7 8 9 10 11 11 12 11 11 10 10 11 11 12 12 12 12 12
8 7 4 4 4 5 5 4 3 4 4 4 4 3 3 4 3 2 3 4 5 4 6 7 9 13 17 22 25 26 27 26 25 24 22 23 25 26 27 27 26 26 25 25 24 23 23 23 22 21 21 20 20 18 16 16 15 13 11 10 9 8 8 7 6 6 6 7 9 10 11 11 12 13 13 12 11 10 10 10 10 11 11 11 11
7 6 4 5 8 7 7 7 7 7 6 4 4 3 3 3 3 2 3 3 5 5 5 5 6 7 11 16 21 24 25 26 25 23 20 20 21 23 25 25 25 25 25 25 24 24 24 24 23 22 22 22 21 19 18 17 16 15 13 12 10 9 9 8 8 7 7 7 9 10 11 12 13 14 14 13 12 11 11 11 10 10 10 10 10
9 6 5 8 10 10 10 10 9 8 7 5 5 5 4 4 4 4 4 4 5 5 5 6 6 6 7 9 13 18 22 24 25 25 23 21 18 18 21 23 24 24 24 24 24 25 24 24 24 23 23 22 21 20 19 18 17 16 15 13 12 11 10 9 9 8 8 7 8 9 10 12 13 14 15 15 14 13 12 12 11 11 10 10 10
9 7 8 10 10 11 11 11 9 9 8 7 6 5 5 5 6 6 5 5 4 4 5 6 6 6 7 7 8 11 15 20 22 24 24 23 21 19 19 19 21 23 23 23 24 24 24 24 25 24 23 22 22 21 20 20 19 18 16 15 13 12 11 11 10 9 9 8 8 9 10 11 13 15 16 16 15 14 13 13 12 12 11 11 11
7 8 11 11 12 13 13 12 11 11 11 10 9 7 7 7 7 6 5 4 3 3 4 5 6 6 7 8 9 10 11 15 19 22 23 24 23 22 21 19 18 20 20 20 21 21 22 23 25 25 23 23 22 22 21 20 19 18 17 16 15 13 13 13 12 11 11 10 10 10 11 12 14 15 17 17 16 16 15 14 13 13 12 12 12
7 10 13 14 16 17 15 14 15 14 14 13 11 9 9 9 9 9 7 6 5 5 7 8 9 9 9 10 10 10 10 12 15 18 20 21 22 22 23 21 19 19 19 19 20 21 21 22 23 24 24 23 23 22 21 20 20 19 18 17 16 15 14 14 14 13 13 13 13 13 13 13 15 16 17 18 18 17 17 16 14 13 13 13 13
10 11 14 18 19 17 16 17 18 18 16 14 13 12 12 12 11 11 10 9 9 9 10 11 12 12 11 12 13 12 11 10 12 14 16 18 19 20 21 20 19 18 18 18 20 22 22 22 23 23 23 24 24 23 22 21 19 19 18 18 17 16 15 15 15 15 15 15 14 14 14 15 16 17 18 19 19 19 18 17 16 14 13 13 13
13 14 16 18 17 16 16 18 19 18 17 16 15 15 14 14 13 13 12 12 11 11 11 13 13 13 13 15 17 17 15 11 11 12 13 15 16 17 18 18 17 16 16 17 18 19 20 23 24 23 23 23 23 23 23 21 20 19 19 18 18 17 17 17 16 16 16 16 16 16 16 16 16 18 19 20 20 20 19 19 17 15 14 13 13
13 16 18 17 15 16 17 18 19 18 17 17 17 16 15 15 15 16 15 15 14 12 12 13 13 13 14 14 14 15 18 15 13 14 14 15 16 16 17 17 17 17 17 18 18 17 18 20 23 24 23 22 22 22 23 22 21 20 19 19 19 18 18 18 18 18 18 18 18 18 17 17 18 19 20 21 22 21 21 20 19 16 15 14 13
13 16 16 15 15 16 17 19 20 20 20 18 17 17 17 17 17 17 17 17 16 15 14 13 14 14 14 14 11 10 13 14 14 14 14 16 17 17 18 18 19 18 18 19 20 19 18 18 20 22 22 22 21 22 22 23 23 22 21 20 20 19 19 19 19 19 19 19 19 19 19 18 19 20 22 22 23 23 22 21 20 18 16 15 14
12 13 13 14 15 16 18 20 21 21 21 20 19 20 20 20 19 18 18 18 17 16 15 15 14 15 14 14 13 10 9 10 11 12 13 14 16 17 17 18 19 18 18 19 19 19 18 18 18 18 19 20 21 22 23 23 23 23 23 22 21 21 20 21 21 20 20 20 20 20 20 20 21 22 23 24 24 24 23 22 21 19 18 17 16
12 11 12 14 15 16 17 19 20 20 19 18 18 20 22 22 22 20 18 17 17 16 17 16 15 14 14 14 14 13 11 11 11 11 12 14 15 16 16 18 19 19 19 20 19 19 19 18 19 19 19 19 19 21 22 23 23 23 23 23 22 22 21 21 22 22 22 22 22 22 22 22 23 24 25 25 26 26 25 24 21 20 20 19 17
15 15 15 15 16 17 18 19 19 19 18 16 16 17 19 21 22 20 18 17 17 17 18 17 16 15 15 14 15 15 13 12 11 12 14 15 15 16 16 17 18 19 19 19 20 21 21 20 22 23 22 20 19 19 19 20 21 22 22 22 23 23 22 21 22 23 23 23 23 23 24 24 25 26 27 28 28 27 26 24 22 21 21 21 20
17 18 18 19 20 21 22 21 20 20 20 20 19 18 17 18 19 18 17 16 16 18 18 16 16 16 14 14 15 15 13 12 12 13 14 15 16 16 16 15 16 17 18 18 19 20 21 21 22 23 21 20 21 20 18 17 17 19 20 21 21 22 22 22 22 23 24 24 24 24 25 25 26 27 29 29 29 28 26 23 22 22 22 22 21
13 16 16 17 18 19 20 20 19 20 21 21 21 20 19 17 16 15 16 16 15 17 17 14 14 15 13 12 13 14 13 13 13 14 15 15 16 16 16 16 16 16 17 18 19 19 20 21 22 23 21 21 22 21 18 17 15 15 17 18 19 20 21 21 21 22 23 24 24 24 25 26 27 28 29 28 27 25 23 22 23 23 23 22 20
7 9 9 9 10 11 12 13 13 14 16 17 17 17 17 17 15 13 14 15 16 16 16 13 12 14 12 12 14 14 14 14 14 15 15 15 16 15 14 15 15 15 14 15 17 18 19 20 21 24 24 22 21 19 18 17 17 16 16 16 17 18 20 20 20 20 20 22 23 23 24 24 25 25 24 23 22 21 21 21 22 22 21 20 18
4 4 4 5 5 5 5 6 7 7 8 9 10 11 13 14 14 13 12 14 15 16 15 13 12 13 13 13 15 15 14 14 14 14 14 14 15 16 15 15 15 15 13 12 14 16 19 20 21 23 25 24 21 19 19 19 19 19 18 17 17 17 18 19 19 18 18 19 21 21 21 21 20 20 19 19 18 18 18 18 19 19 18 17 15
3 3 3 3 3 2 2 3 3 3 3 4 5 6 7 10 12 13 12 13 14 14 14 14 14 14 13 14 15 14 13 13 13 13 13 12 13 15 15 14 14 15 14 13 12 12 15 18 21 24 25 25 23 21 22 22 22 22 21 20 19 18 17 17 17 17 18 19 19 20 20 19 19 18 17 17 17 16 16 16 17 16 15 14 13
3 3 2 2 2 2 2 2 2 2 2 1 1 2 3 7 10 12 12 13 13 13 13 13 13 13 13 13 13 12 11 12 11 10 9 9 10 12 13 12 13 14 15 14 12 10 10 12 17 22 25 27 27 24 24 24 23 23 24 22 20 19 17 17 17 17 18 18 19 20 19 18 19 19 18 18 17 15 14 15 16 15 15 14 13
3 3 3 3 2 3 5 5 5 4 3 4 4 3 4 5 6 8 9 11 11 11 11 11 11 11 11 11 12 11 10 10 10 9 7 6 7 9 10 10 11 13 14 13 11 10 9 9 11 15 20 27 28 26 25 24 21 21 22 20 18 18 18 17 17 17 18 17 17 18 18 19 20 19 19 18 17 16 15 15 16 16 15 15 14
1 2 3 4 4 4 5 7 7 7 7 7 6 6 6 7 6 6 6 6 7 7 7 8 9 9 9 9 9 8 8 8 7 7 6 5 5 5 6 7 8 11 12 11 11 12 11 10 9 10 13 20 25 25 25 26 23 21 21 20 18 18 18 17 17 19 18 17 17 17 17 18 20 20 20 20 18 17 17 17 17 16 17 16 16
4 5 5 6 6 6 6 7 7 8 8 7 7 7 7 8 8 7 7 6 6 6 6 6 6 6 5 5 5 5 5 6 6 6 6 5 5 4 4 4 4 7 9 9 11 13 13 12 9 9 10 13 19 23 23 23 23 24 23 21 21 21 20 18 18 19 19 20 21 19 17 18 19 19 20 21 21 20 20 19 19 18 18 18 18
7 7 8 8 7 7 7 7 7 7 7 7 7 7 7 8 8 7 7 7 6 6 5 5 4 4 3 3 4 4 4 4 4 4 3 4 4 3 2 2 2 2 4 7 8 10 13 12 9 8 9 10 12 16 18 18 19 22 23 21 20 19 19 20 20 19 20 21 20 18 17 19 19 20 21 21 22 23 23 22 21 20 20 19 19
9 10 11 11 11 11 10 10 10 9 9 9 8 8 8 8 7 7 7 6 5 4 4 3 3 3 3 3 4 4 4 4 4 4 3 4 5 4 4 4 4 4 4 6 6 6 8 9 9 8 8 7 8 9 12 15 17 19 21 22 21 18 17 18 19 20 21 22 21 19 18 19 20 21 22 23 23 22 22 22 22 21 20 19 21
13 14 15 16 16 16 15 15 15 14 13 13 13 12 11 11 11 10 10 9 8 7 7 6 4 3 2 1 1 1 2 2 2 3 3 3 4 5 5 6 6 8 8 8 7 6 5 7 8 10 9 8 8 9 10 12 15 18 20 22 23 22 20 19 20 20 21 22 22 22 20 20 20 21 22 23 22 21 22 23 22 21 22 21 23
15 17 18 19 19 19 18 18 18 18 18 18 17 17 16 16 15 15 15 14 14 13 12 11 10 9 7 7 6 5 5 5 4 4 4 3 3 3 3 4 5 6 8 9 8 7 7 7 8 9 11 11 11 11 11 11 11 14 17 18 19 19 19 19 21 22 22 22 22 22 22 21 21 22 22 22 22 21 22 24 23 23 24 24 24
14 16 18 18 18 18 18 18 18 18 18 18 18 18 17 17 16 16 16 15 15 14 14 13 12 12 11 10 9 9 8 8 7 7 7 7 6 5 4 4 4 4 5 6 6 7 8 8 8 9 11 11 12 12 12 12 12 12 13 15 15 15 15 17 20 21 22 24 24 23 22 22 22 22 23 24 24 24 23 25 26 26 26 26 26
11 13 15 15 15 15 15 16 16 15 15 15 15 15 15 15 14 14 13 13 13 13 12 12 12 12 11 11 11 10 10 9 10 10 9 8 8 7 6 5 4 5 5 5 5 6 7 7 7 8 10 11 12 13 13 14 15 14 14 14 14 14 14 15 17 18 20 23 24 24 22 23 23 24 24 25 25 25 24 24 25 25 25 26 26
7 9 10 11 11 11 11 11 11 11 11 10 10 10 10 10 10 10 10 10 10 10 10 10 10 10 10 10 10 9 9 8 9 10 10 9 8 7 7 6 5 5 5 5 5 6 7 7 7 8 9 10 11 11 12 13 14 14 13 13 14 14 14 15 16 17 19 21 23 24 24 24 25 25 26 27 25 24 23 23 23 24 24 24 23
5 5 5 6 7 7 7 7 7 6 6 6 5 5 5 5 5 6 6 6 7 7 7 8 9 10 10 10 10 10 8 8 8 9 10 9 9 8 8 7 7 6 6 6 6 6 7 8 10 10 10 11 12 12 12 12 13 13 12 12 13 13 14 15 16 17 18 20 21 22 23 24 25 27 28 28 26 25 24 24 24 24 24 24 23
6 6 5 4 4 3 3 3 3 2 2 2 2 3 3 3 3 3 4 4 5 6 6 7 7 8 9 9 9 10 10 10 10 10 9 8 8 8 8 8 7 7 6 7 7 8 8 8 10 12 12 13 15 15 14 14 14 14 13 13 13 13 14 14 15 16 17 18 19 19 20 22 23 25 26 26 26 25 25 24 25 25 25 25 25
8 8 8 8 8 8 6 5 4 3 4 4 5 6 6 6 6 5 6 6 6 7 7 7 7 7 8 8 9 9 10 11 11 11 11 9 8 7 8 8 8 7 6 6 6 7 9 10 11 12 13 13 15 17 17 17 17 17 16 15 15 15 15 15 16 17 17 17 17 18 18 19 20 21 22 23 23 23 24 23 23 24 25 25 25
12 11 10 9 9 9 9 9 9 9 10 9 10 11 11 10 9 8 8 8 8 8 8 9 9 9 8 8 9 9 9 10 10 11 11 11 11 11 11 12 11 11 10 8 8 7 7 9 11 13 14 14 14 16 17 18 18 19 19 19 19 18 18 19 19 20 20 20 20 20 20 20 20 21 21 22 22 22 22 22 23 23 23 23 23
15 14 12 11 10 10 9 10 10 11 11 10 12 14 15 14 12 12 12 11 11 10 9 10 11 11 11 10 10 10 11 11 11 11 11 12 13 14 14 15 15 15 15 14 13 12 10 10 11 12 13 14 15 16 17 17 18 19 19 20 21 21 22 22 22 23 23 23 23 23 23 22 22 21 22 22 22 22 22 22 23 23 23 23 23
17 16 15 15 14 13 13 12 12 12 12 12 13 14 16 17 16 16 16 16 14 12 10 11 11 12 12 12 12 12 13 13 13 13 13 14 15 16 17 18 18 19 20 19 19 18 16 15 15 14 14 14 14 16 17 17 18 19 19 19 20 21 22 23 23 23 24 24 25 25 25 24 24 23 23 22 22 22 22 22 22 23 23 23 23
18 16 16 17 17 17 16 16 15 15 16 17 19 19 19 21 23 22 20 19 17 14 13 13 13 14 14 14 14 14 14 15 15 15 16 16 17 18 19 20 21 22 22 22 22 23 22 21 20 19 18 16 16 17 18 18 18 18 19 19 20 21 21 21 22 23 23 24 24 25 25 25 25 25 25 24 24 23 23 22 22 23 23 23 22
19 16 16 17 17 18 18 18 18 18 19 21 24 25 25 25 28 27 21 19 18 16 14 15 15 16 16 17 17 16 16 17 18 19 19 20 20 20 21 22 23 24 24 24 24 25 25 24 23 22 22 21 19 19 19 20 20 19 19 19 20 22 22 22 23 24 25 25 24 24 25 25 26 26 26 25 25 25 24 24 24 23 23 23 22
20 18 19 17 15 15 16 17 19 19 20 22 24 25 24 23 26 29 26 21 19 17 15 15 16 17 17 18 18 18 18 19 21 22 23 23 23 23 23 24 24 25 26 26 26 26 26 25 24 24 24 24 24 23 22 22 22 22 21 20 20 21 22 22 24 26 27 26 25 24 25 26 27 27 27 26 27 27 27 26 26 26 25 24 23
16 16 19 17 15 16 17 18 18 18 19 20 20 19 19 18 19 25 29 27 22 17 15 15 16 18 18 18 18 19 20 22 23 24 24 25 26 26 26 27 27 27 28 28 28 27 27 26 25 26 26 26 26 25 25 24 24 23 23 23 22 22 22 22 23 27 28 27 27 26 26 27 28 28 29 29 29 30 30 29 29 29 28 27 26
16 17 18 18 19 19 17 16 15 15 14 14 14 14 15 16 16 19 23 28 28 24 21 20 20 21 20 20 20 21 23 25 25 25 26 27 29 30 30 30 30 29 29 29 29 29 29 28 27 28 28 28 28 27 26 26 27 26 25 26 25 24 24 22 23 26 29 29 28 27 26 28 29 29 30 31 31 32 32 32 32 31 31 30 29
20 20 20 20 20 18 15 14 14 15 14 13 13 13 14 15 16 17 19 23 27 28 27 27 27 25 23 22 22 23 25 26 27 28 28 29 31 32 33 33 32 31 30 29 30 31 31 30 30 30 30 29 29 29 29 28 28 28 28 28 28 27 27 26 23 25 28 30 30 29 27 28 30 30 30 30 32 33 34 33 33 33 33 33 33
18 19 19 20 20 19 18 19 19 18 17 16 16 16 16 16 18 19 20 21 24 26 27 29 29 27 25 23 23 23 25 26 28 29 29 30 32 32 33 33 33 32 31 29 29 30 31 31 31 31 31 30 29 30 30 30 29 28 28 29 31 31 31 30 27 25 26 30 31 31 29 28 31 32 31 31 32 34 35 36 35 35 35 35 35
15 16 16 17 17 17 18 19 19 19 19 19 19 20 21 21 22 23 25 25 26 26 27 28 28 28 28 26 25 26 26 27 29 30 30 31 33 33 31 31 32 31 30 29 28 29 30 31 31 31 32 33 32 31 32 32 31 30 29 30 31 33 33 33 32 29 28 29 32 33 31 30 32 33 32 31 32 35 36 37 37 36 36 36 36
17 18 18 19 20 21 21 21 22 23 23 23 24 25 26 26 26 27 28 28 28 27 27 28 28 29 29 29 30 30 28 28 30 32 32 34 35 33 30 29 29 30 29 28 27 28 29 31 31 31 33 35 35 34 34 35 35 34 33 32 32 34 34 34 35 34 32 32 34 36 34 32 32 35 34 32 32 35 37 37 37 37 37 37 38
20 22 22 23 24 24 24 23 24 24 24 25 25 25 26 27 27 27 27 27 27 27 27 29 31 31 30 29 30 30 29 30 32 34 35 36 35 33 31 30 30 30 30 28 28 29 31 32 33 33 34 36 37 36 36 37 38 38 38 37 36 36 36 36 36 36 34 34 37 40 39 35 34 36 36 34 34 36 37 37 36 36 37 37 38
19 20 21 22 22 22 22 21 21 21 22 22 23 23 24 25 26 26 26 26 26 27 28 30 32 32 30 28 29 31 31 31 34 35 36 36 36 35 35 34 33 32 32 30 30 32 34 35 35 36 36 36 37 38 38 38 40 41 41 41 41 40 39 39 38 36 35 35 37 41 43 40 37 38 38 37 37 38 38 38 37 37 37 38 38
17 18 20 21 21 22 22 22 22 22 22 22 23 23 24 24 25 27 27 27 27 28 28 30 31 31 29 28 29 31 32 32 34 36 37 37 37 37 38 37 36 35 33 32 34 35 37 37 37 37 37 37 38 39 40 40 41 42 43 43 42 41 42 43 41 38 36 35 36 40 43 42 39 39 41 40 40 40 40 40 40 39 39 39 39
19 20 21 22 23 23 23 24 24 24 24 23 24 24 24 25 25 26 26 26 27 27 27 29 30 29 30 30 30 31 33 34 36 38 38 38 39 39 39 39 38 36 35 35 36 37 37 38 38 38 39 40 41 42 42 42 42 42 43 43 42 41 43 44 43 41 39 37 36 38 41 42 40 39 40 42 42 42 42 41 41 41 41 41 41
22 23 24 24 24 24 25 25 25 25 25 24 24 25 25 25 26 26 26 26 25 25 26 27 27 28 29 30 30 32 35 36 37 38 39 39 40 40 39 39 38 37 36 37 38 38 38 39 40 41 42 43 44 43 43 42 42 41 43 43 43 43 43 44 44 44 42 40 38 38 41 43 42 40 40 41 42 43 43 44 43 43 43 43 43
25 26 26 26 25 25 25 25 25 25 25 25 26 26 26 26 27 27 28 28 27 27 28 28 28 29 29 30 31 33 35 37 38 39 39 40 40 40 40 39 39 38 39 40 39 39 40 41 42 43 43 44 44 43 42 42 42 42 42 43 43 44 44 44 44 45 44 43 40 40 42 43 43 42 42 42 43 42 42 44 45 44 44 45 45
Wind_Direction
233 238 217 209 188 186 202 187 181 212 264 276 281 284 292 297 300 329 341 336 311 268 244 235 231 229 228 229 230 231 231 229 230 232 235 238 237 236 236 236 238 238 239 241 244 247 249 251 254 257 260 263 263 263 262 261 260 260 262 262 261 259 263 275 290 305 316 323 329 333 339 344 347 349 350 351 354 359 6 12 18 24 27 30 31
233 236 226 224 198 176 177 180 207 220 234 257 260 278 297 293 294 307 316 324 325 306 281 264 249 241 238 237 236 234 233 232 230 229 231 236 239 239 238 238 239 239 240 242 245 247 249 252 254 256 258 260 262 262 262 261 260 258 257 256 255 254 254 261 271 285 299 310 319 324 329 334 338 341 343 343 342 343 347 353 0 7 15 22 26
222 228 217 219 215 208 214 233 252 245 231 230 234 256 273 263 256 263 279 297 306 308 307 300 282 263 253 250 248 244 239 236 233 231 230 234 240 243 242 240 240 241 242 243 246 248 249 251 253 255 256 257 259 260 260 260 261 259 256 253 251 250 251 257 264 273 284 298 308 314 319 325 329 333 336 337 337 335 333 336 342 349 356 4 13
211 212 215 209 209 212 218 227 243 241 234 241 244 248 250 243 236 242 258 269 285 302 316 320 310 299 285 271 262 255 247 241 238 235 233 233 237 244 244 241 240 243 243 244 246 248 250 251 252 253 254 255 257 259 259 258 259 259 257 254 250 247 245 250 259 266 274 284 293 300 308 315 320 324 328 331 332 332 329 326 327 331 337 345 353
204 198 213 208 202 203 208 213 223 228 238 251 251 250 247 243 241 242 252 259 273 298 314 322 323 320 312 300 282 268 255 245 240 239 237 235 236 242 247 244 242 242 243 246 248 250 252 253 253 252 252 252 253 255 256 257 257 257 256 254 251 249 244 243 248 255 261 267 275 284 295 304 312 317 322 325 327 328 328 325 322 320 322 327 334
202 209 214 214 216 216 212 210 213 222 236 247 249 248 241 239 247 248 243 242 250 281 298 304 310 311 308 303 293 282 268 251 240 238 239 240 241 244 250 252 249 246 246 248 252 255 256 256 254 252 251 249 250 250 251 253 254 254 254 253 251 249 247 244 243 246 251 256 263 273 284 295 304 310 315 318 321 324 326 324 322 317 314 315 320
205 217 220 221 222 220 217 214 216 222 233 244 245 243 241 241 246 249 249 245 243 254 268 278 286 291 293 293 288 279 271 258 245 236 234 237 242 245 250 256 256 254 253 252 254 256 258 258 256 255 252 249 247 246 246 247 248 249 251 250 249 248 247 246 245 245 248 253 258 266 277 287 295 302 307 311 315 319 322 322 320 316 313 311 311
213 212 220 223 222 221 221 222 224 227 234 241 242 241 245 248 247 248 253 253 254 256 260 266 270 277 282 283 281 270 258 255 252 244 236 233 236 241 247 252 254 255 255 255 255 257 258 258 258 258 256 252 248 245 243 243 243 244 246 247 247 248 247 247 247 248 250 254 259 264 271 280 287 294 300 305 309 313 316 317 316 314 312 310 308
218 219 223 222 222 225 225 229 233 237 241 242 241 240 242 246 248 249 251 254 260 261 260 261 260 266 273 279 280 265 245 239 246 248 245 240 237 238 242 245 247 251 254 256 258 259 257 255 254 256 258 257 252 246 243 241 241 242 243 243 244 244 246 247 248 249 252 255 258 263 268 274 281 288 294 298 303 307 310 312 311 309 308 307 307
213 220 223 220 222 229 231 233 236 240 243 244 245 244 243 247 249 249 250 253 258 260 261 259 256 259 264 272 277 258 241 242 250 251 251 250 248 247 247 249 249 250 253 256 258 260 260 257 254 253 255 257 255 249 244 241 239 239 241 241 241 241 243 245 247 248 251 254 258 261 266 271 277 283 288 292 296 302 305 307 306 302 301 302 302
219 222 228 227 229 236 240 239 239 242 244 246 250 249 248 249 248 247 249 250 250 253 258 256 253 255 257 259 262 254 245 249 255 257 255 253 253 255 257 259 261 260 257 256 258 259 260 261 260 257 253 253 252 249 245 242 240 238 238 238 239 240 241 244 246 247 250 253 257 261 265 269 274 279 283 287 292 297 301 302 301 298 296 295 296
238 235 236 235 238 241 244 246 246 247 247 248 250 251 249 250 251 249 247 245 244 247 250 252 250 252 256 252 248 255 260 255 254 256 255 254 256 259 262 267 271 269 263 260 261 263 263 262 263 261 257 253 249 246 244 240 239 237 237 237 238 240 241 243 246 248 251 253 256 261 265 268 273 276 280 285 290 294 298 299 296 293 292 292 291
252 250 247 245 246 245 246 250 251 251 249 247 248 250 250 251 251 247 243 240 239 241 243 246 246 246 255 253 244 250 260 257 257 259 260 261 262 265 268 271 274 272 265 261 262 264 265 261 257 255 257 257 251 246 244 241 239 238 237 238 238 240 242 244 247 250 253 255 258 261 264 267 271 275 280 284 289 293 295 295 292 289 289 289 288
251 253 254 255 256 256 255 255 253 250 247 244 244 247 249 248 245 242 240 235 232 237 240 244 244 241 246 250 248 252 256 254 256 261 265 267 269 270 270 270 272 273 268 262 259 260 260 259 256 252 253 255 251 245 243 244 243 241 240 240 241 242 243 244 248 251 254 257 259 262 264 267 270 274 279 283 286 290 292 291 288 287 288 288 286
249 252 255 258 260 261 260 257 253 248 247 248 249 250 251 250 246 239 234 229 228 236 242 247 251 245 241 247 251 252 251 250 253 258 264 269 272 273 272 269 268 272 272 267 262 261 259 258 256 251 249 251 248 242 238 239 242 243 241 241 243 245 246 246 247 249 252 255 259 263 267 269 272 275 278 281 284 287 288 287 286 287 287 286 285
247 250 252 254 256 257 257 255 252 249 248 251 254 254 252 253 253 240 230 229 232 239 245 247 250 248 243 242 244 243 245 249 254 259 265 270 271 272 271 270 270 270 270 266 264 263 260 258 254 249 247 248 246 238 233 236 240 242 240 239 241 244 246 247 249 250 253 255 257 262 266 270 273 276 278 280 281 282 282 282 283 284 284 284 284
241 247 246 247 251 255 257 257 254 251 250 252 255 255 251 250 252 243 230 229 233 239 243 242 245 249 248 242 240 242 246 251 256 261 265 266 266 267 266 268 269 268 266 261 261 261 258 255 255 254 247 242 243 242 240 241 242 240 238 239 241 244 245 244 247 251 255 258 259 259 262 267 271 274 275 277 277 278 279 280 280 281 281 282 284
218 232 236 232 237 247 257 265 265 259 253 253 252 252 248 245 244 241 233 231 233 237 240 241 244 247 249 250 250 251 254 257 260 263 264 263 263 264 264 262 261 262 263 261 261 262 258 252 252 255 249 239 240 244 243 244 247 245 239 238 242 244 246 245 244 247 251 255 257 256 257 260 265 268 269 271 273 276 278 279 279 279 280 281 284
210 222 233 226 217 213 222 245 256 253 251 252 248 242 232 228 232 234 230 229 232 234 237 240 241 241 245 251 254 257 260 266 267 267 268 265 263 263 263 261 257 258 263 267 271 276 273 262 253 252 251 245 243 242 240 240 241 240 236 234 238 242 244 246 244 244 247 249 250 252 253 256 260 263 266 267 268 272 277 280 280 278 277 277 279
231 226 224 219 194 152 130 152 180 192 203 201 210 213 192 202 219 226 227 228 228 230 235 238 239 243 247 251 255 260 266 270 270 268 267 262 262 263 264 264 259 260 265 271 280 285 286 278 263 255 252 249 246 240 240 241 237 236 237 234 233 236 242 245 244 245 246 246 246 248 252 256 260 264 267 269 268 268 270 273 275 275 272 271 273
236 219 203 188 157 128 115 118 128 129 116 101 97 99 122 159 189 209 220 224 222 222 229 232 234 239 244 248 255 261 264 264 264 265 266 265 271 273 272 272 267 266 268 269 275 278 279 284 274 261 251 248 246 239 242 249 245 243 246 243 236 236 242 247 248 247 247 246 247 247 247 250 255 259 262 265 267 267 267 266 267 267 266 266 269
187 167 168 164 153 143 127 117 118 120 114 104 103 108 114 123 135 155 177 188 189 194 204 212 216 221 229 238 248 255 257 261 266 271 276 278 281 278 274 279 277 275 274 272 271 271 273 280 278 265 248 243 242 240 244 250 248 244 245 248 247 242 242 246 247 247 248 250 250 247 245 247 250 253 255 258 259 261 263 263 261 261 262 263 266
101 112 126 139 145 144 137 130 127 125 122 119 119 123 127 128 131 137 142 143 150 160 169 179 189 200 213 228 243 254 260 269 273 272 274 279 283 279 270 274 278 282 289 286 275 267 271 281 281 267 253 242 238 239 245 251 250 247 245 246 249 244 240 242 246 248 250 252 251 248 247 251 255 255 256 257 257 255 253 252 253 254 255 260 264
99 106 113 121 128 130 131 130 126 123 122 123 124 126 129 132 133 135 138 141 147 154 159 163 173 189 203 223 242 254 263 271 271 267 268 275 283 285 272 260 249 274 304 301 287 276 275 281 283 272 265 258 250 248 251 253 253 252 251 250 250 247 243 244 247 249 251 254 259 260 257 258 260 260 259 257 256 256 252 248 247 248 249 254 259
102 105 108 110 112 112 112 112 112 113 114 112 112 113 113 116 120 121 125 132 137 140 145 155 176 201 220 236 248 260 271 276 279 282 276 270 271 272 271 271 270 275 291 296 299 302 288 281 280 282 286 284 282 282 271 261 257 255 257 259 261 260 257 253 251 251 253 256 263 267 265 265 265 264 262 262 262 263 262 258 254 254 255 256 259
103 104 104 104 104 104 102 101 101 101 100 99 98 97 96 96 95 93 91 89 88 86 84 83 81 73 56 29 8 350 335 323 319 316 304 293 288 285 281 277 280 281 282 281 282 288 285 277 276 281 290 292 288 293 292 277 265 259 260 264 266 266 267 265 261 259 261 261 262 263 264 268 271 268 265 265 266 268 269 269 267 266 264 261 261
108 106 104 102 101 100 98 97 97 96 95 94 91 90 89 87 85 83 82 79 76 74 73 71 69 66 63 60 58 53 50 50 43 33 25 15 10 355 328 304 293 286 282 283 281 276 269 266 268 273 280 286 283 281 285 283 272 264 263 266 269 269 271 273 269 266 265 262 260 260 261 263 267 268 266 264 265 264 265 267 267 265 262 259 257
113 110 107 105 103 101 100 97 96 94 92 91 89 88 86 83 82 80 78 76 73 71 69 67 66 66 66 64 63 61 59 58 56 51 43 37 34 32 23 3 343 325 309 304 296 285 280 272 266 266 270 275 277 277 277 276 273 267 261 260 264 266 266 266 265 264 262 258 253 252 257 261 263 267 269 269 270 269 265 264 263 261 258 257 257
123 117 112 110 108 106 105 102 99 96 93 90 87 85 82 79 77 74 72 70 68 65 62 59 58 58 58 58 57 57 56 54 50 45 39 35 34 34 33 24 8 352 340 334 325 306 299 290 274 270 271 270 270 271 272 273 273 271 266 263 262 260 256 254 254 256 258 258 253 249 251 256 259 266 272 274 273 272 269 266 264 262 260 258 258
142 131 124 121 117 113 111 107 104 101 96 92 88 84 82 77 71 66 61 59 54 52 49 44 42 40 39 40 39 38 41 38 34 32 28 23 22 26 28 27 22 11 354 338 328 315 307 303 292 284 281 280 280 278 276 276 275 274 272 269 266 262 257 253 252 251 253 257 258 256 255 256 257 262 269 271 271 271 269 266 264 262 261 259 257
189 174 158 145 136 130 125 113 106 102 95 88 81 74 71 69 66 57 47 40 31 26 25 22 20 19 16 17 18 16 14 10 4 9 17 19 18 15 12 11 12 9 1 348 333 320 308 300 296 294 291 289 289 290 289 287 283 280 277 271 266 262 259 257 256 255 255 256 258 258 259 258 257 259 262 266 267 267 267 266 265 263 261 260 259
232 239 240 229 216 199 170 147 125 112 91 61 35 12 4 1 3 5 1 359 356 353 357 359 357 357 356 355 356 358 359 358 352 351 358 9 16 15 9 4 2 357 352 344 334 325 317 307 298 294 292 288 286 285 285 285 284 283 280 276 270 265 263 262 262 261 260 259 258 258 257 256 256 258 260 263 265 265 265 263 263 262 261 260 260
231 241 255 260 260 263 263 264 267 274 287 305 317 317 314 308 302 303 309 312 316 320 325 331 333 334 337 338 338 340 345 347 347 345 343 343 344 346 348 348 348 350 348 341 331 323 317 314 308 302 297 290 284 281 279 277 276 277 277 276 273 269 268 267 266 266 265 263 262 260 259 259 258 259 261 263 264 265 264 263 262 261 261 261 260
232 236 252 263 263 264 269 274 276 277 284 294 302 304 302 297 290 288 290 290 292 299 303 305 310 313 312 315 318 319 323 327 330 332 331 328 323 321 323 325 326 328 331 333 334 331 321 312 307 305 303 298 289 284 281 278 275 274 274 274 273 271 269 267 267 268 268 269 268 266 264 262 262 262 262 263 263 263 264 264 263 262 262 261 260
242 244 253 261 261 261 264 271 274 272 273 286 297 297 294 289 286 286 285 282 280 283 290 294 295 298 297 296 299 301 305 308 310 313 315 315 314 314 316 318 319 319 319 321 323 327 328 322 310 300 296 297 294 287 283 281 278 276 274 273 273 272 271 270 269 269 269 270 270 269 268 267 267 267 266 266 266 265 265 264 264 264 263 263 262
246 249 257 261 261 264 266 268 271 266 263 275 289 289 282 276 278 283 281 278 276 273 275 281 281 282 282 281 283 285 289 293 294 297 301 304 307 309 311 311 312 313 314 314 314 316 319 322 322 313 299 293 292 289 285 281 278 275 272 270 270 270 272 273 272 270 269 268 268 267 267 267 267 267 267 267 266 266 265 265 265 265 264 264 264
249 253 258 261 261 263 266 269 272 271 272 279 285 288 283 271 266 272 273 269 270 271 269 271 273 274 274 273 274 276 280 284 285 286 290 294 297 300 302 303 304 306 307 309 310 310 310 312 318 322 316 305 296 292 289 284 279 275 272 270 269 267 268 270 271 270 268 266 265 265 265 266 266 266 265 266 266 266 267 267 267 266 266 266 266
245 254 257 257 259 260 262 267 271 278 285 289 292 296 297 279 259 257 261 258 256 259 262 265 268 271 274 276 276 278 280 281 282 282 284 286 288 291 294 297 299 301 303 306 308 309 307 306 309 317 320 315 306 299 293 289 285 280 275 272 271 270 268 268 269 269 268 266 264 263 264 264 264 264 265 265 267 267 268 269 269 269 268 268 268
234 248 251 249 257 262 265 272 280 289 296 300 301 303 304 290 260 248 248 247 248 252 254 257 262 267 273 278 282 285 285 283 281 281 282 284 285 287 288 291 295 298 301 303 305 307 308 305 305 309 315 315 310 304 299 294 291 287 282 276 271 270 270 271 271 270 269 268 267 265 264 263 263 264 264 264 265 266 266 266 266 266 267 267 268
235 255 256 254 266 273 277 285 291 298 301 304 307 303 297 291 268 251 245 240 241 251 256 256 262 267 273 278 283 285 286 285 286 286 287 287 286 286 287 290 293 296 298 299 301 304 306 305 304 306 310 312 310 306 302 297 293 292 288 283 278 274 271 271 272 271 270 269 268 267 265 264 263 263 263 261 261 261 262 262 263 264 265 265 266
263 271 268 268 276 279 284 293 297 300 300 299 299 291 281 276 269 262 253 240 238 247 258 265 270 272 274 279 283 285 286 288 292 294 294 293 291 291 292 292 293 293 294 296 298 301 303 303 302 303 306 309 309 307 304 298 293 290 289 288 285 282 277 273 273 274 273 271 269 269 270 270 267 266 266 266 264 264 263 263 264 265 266 267 268
277 275 275 278 282 282 284 287 287 287 286 283 280 275 272 269 264 264 259 248 245 250 258 266 272 275 277 281 285 286 287 291 294 296 296 295 295 295 294 294 293 291 291 292 294 297 299 300 301 301 303 304 305 306 304 301 296 292 290 289 287 285 283 278 276 278 279 278 274 271 272 274 273 270 269 270 270 269 268 266 266 267 267 268 270
274 275 277 279 281 279 275 274 275 276 275 274 275 272 272 271 267 264 261 258 257 257 261 266 272 276 280 283 285 284 286 290 292 291 292 294 296 295 292 291 291 291 289 288 290 292 294 296 298 300 301 300 301 301 300 299 297 295 293 291 289 287 285 283 281 279 280 281 279 275 273 275 276 275 273 272 272 271 269 268 266 266 266 267 267
263 262 263 267 270 270 269 269 271 272 272 274 277 278 277 274 271 268 266 264 264 265 267 269 271 275 279 281 280 280 282 286 287 286 288 291 293 294 292 289 289 289 286 285 287 288 289 290 293 296 297 297 296 296 296 294 293 293 291 290 289 288 287 286 285 283 282 282 280 276 274 274 276 276 275 275 275 274 272 270 269 268 267 267 266
252 252 254 258 263 266 267 268 269 271 274 276 276 277 276 273 270 267 266 266 267 269 270 270 271 273 276 277 276 276 279 283 283 283 285 287 289 292 292 290 289 286 282 281 283 284 285 287 289 293 295 294 294 294 294 293 292 291 290 289 288 286 286 286 285 285 286 286 283 280 277 275 275 275 274 275 275 275 275 274 273 271 269 269 268
251 254 257 261 266 269 271 272 273 273 274 275 274 272 270 270 269 269 268 269 269 270 270 270 271 271 272 272 273 275 277 279 279 278 279 282 286 289 289 290 290 285 280 279 280 281 284 286 289 291 293 293 293 293 293 293 293 293 293 292 290 288 286 284 283 283 285 286 285 283 280 278 277 276 275 274 273 273 274 275 274 273 271 269 269
255 259 263 266 268 270 273 276 276 275 275 275 274 272 271 272 274 275 276 275 273 271 270 271 272 272 270 270 271 275 277 278 278 277 277 280 285 288 288 289 289 285 280 279 281 282 284 286 288 290 290 290 290 291 292 293 294 294 294 293 292 291 288 284 282 281 282 282 282 282 281 281 281 279 277 275 272 270 271 272 273 273 272 270 268
260 264 268 270 272 274 276 277 277 276 276 276 276 276 276 277 278 279 279 278 277 275 272 271 273 274 276 275 276 279 281 281 281 280 279 281 284 286 287 290 290 286 280 279 282 284 286 287 288 288 287 287 288 289 290 291 292 292 292 291 291 291 289 286 284 282 281 280 279 280 280 280 279 279 278 277 274 272 270 269 270 270 271 270 269
259 263 266 269 273 276 277 278 278 278 277 276 276 277 277 278 279 279 280 280 279 277 275 273 273 273 273 274 275 276 277 278 279 281 281 282 283 285 288 290 290 286 282 282 284 286 288 288 287 286 286 286 287 288 289 289 290 290 290 290 290 289 287 286 285 284 283 281 280 280 280 279 278 277 276 275 275 273 271 269 268 267 267 267 267
261 264 267 270 274 276 278 278 278 277 276 275 274 274 275 277 278 278 278 278 279 279 279 278 278 276 273 271 271 273 274 276 278 280 282 283 285 287 288 287 286 285 284 283 284 286 288 288 288 287 287 288 289 289 290 290 291 291 290 290 290 288 286 286 285 285 284 283 283 282 280 280 279 278 276 274 272 272 272 271 268 266 265 264 264
264 267 270 273 275 277 277 277 276 275 275 273 273 274 274 275 276 276 276 277 278 280 282 283 283 282 279 276 273 273 274 276 277 278 281 283 284 284 283 283 282 282 281 282 284 288 290 289 289 289 288 288 289 290 291 291 291 291 290 289 289 288 287 286 286 285 284 284 284 283 281 280 280 279 277 275 273 271 270 270 269 266 265 265 264
Height
3153 3152 3152 3152 3153 3153 3155 3156 3156 3157 3157 3158 3158 3157 3156 3156 3156 3156 3156 3156 3156 3156 3157 3157 3158 3158 3158 3158 3159 3159 3160 3162 3163 3165 3166 3166 3167 3169 3170 3171 3172 3174 3175 3176 3176 3177 3178 3179 3180 3180 3181 3182 3183 3184 3185 3186 3187 3187 3187 3188 3188 3187 3187 3187 3187 3186 3186 3185 3185 3184 3184 3184 3183 3183 3182 3182 3181 3180 3180 3179 3178 3178 3177 3176 3175
3151 3150 3151 3152 3151 3152 3154 3155 3156 3156 3157 3157 3157 3156 3155 3155 3155 3155 3155 3155 3156 3156 3156 3157 3157 3158 3158 3158 3158 3159 3159 3160 3162 3163 3164 3164 3165 3167 3168 3170 3171 3172 3173 3174 3175 3176 3177 3177 3178 3179 3180 3181 3182 3183 3184 3185 3186 3186 3186 3187 3187 3187 3187 3187 3186 3186 3185 3185 3185 3184 3184 3183 3183 3183 3182 3182 3181 3180 3180 3179 3178 3178 3177 3177 3176
3150 3149 3150 3151 3150 3151 3152 3153 3154 3155 3156 3156 3155 3155 3154 3154 3154 3154 3154 3155 3155 3155 3155 3156 3156 3157 3157 3157 3158 3158 3159 3160 3161 3162 3162 3163 3164 3165 3166 3168 3169 3171 3172 3173 3174 3174 3175 3176 3177 3177 3178 3179 3180 3181 3183 3184 3184 3185 3185 3185 3186 3186 3186 3186 3186 3185 3185 3185 3184 3184 3183 3183 3183 3182 3182 3182 3181 3180 3180 3179 3178 3178 3177 3177 3176
3148 3148 3148 3150 3150 3150 3150 3151 3153 3154 3154 3155 3155 3154 3154 3154 3153 3153 3154 3154 3153 3153 3154 3155 3155 3156 3157 3157 3157 3157 3158 3159 3160 3161 3162 3162 3163 3163 3165 3166 3168 3169 3170 3171 3172 3172 3173 3174 3175 3176 3176 3177 3178 3180 3181 3182 3183 3184 3184 3184 3184 3185 3185 3185 3185 3185 3184 3184 3184 3183 3183 3182 3182 3182 3181 3181 3181 3180 3180 3179 3178 3178 3177 3177 3176
3148 3148 3147 3148 3149 3149 3149 3151 3151 3152 3153 3153 3154 3154 3154 3154 3153 3152 3152 3152 3152 3152 3153 3154 3154 3155 3155 3156 3156 3156 3156 3158 3159 3160 3160 3161 3162 3162 3163 3165 3166 3167 3168 3169 3170 3170 3171 3172 3173 3174 3174 3175 3176 3178 3178 3180 3181 3182 3183 3183 3183 3183 3183 3184 3184 3184 3184 3183 3183 3182 3182 3181 3181 3181 3181 3180 3180 3180 3179 3179 3178 3177 3177 3176 3176
3147 3148 3147 3147 3148 3148 3149 3150 3150 3151 3151 3153 3153 3153 3153 3152 3152 3151 3151 3151 3151 3151 3152 3153 3154 3154 3155 3155 3155 3155 3155 3155 3156 3157 3158 3159 3160 3161 3162 3163 3164 3166 3167 3168 3168 3169 3169 3170 3171 3171 3172 3173 3174 3175 3176 3177 3179 3180 3181 3181 3182 3182 3182 3182 3182 3182 3182 3182 3182 3181 3181 3180 3180 3180 3180 3179 3179 3179 3178 3178 3177 3177 3176 3176 3175
3144 3147 3148 3148 3147 3148 3149 3149 3149 3150 3150 3152 3152 3152 3152 3151 3150 3150 3149 3149 3150 3151 3152 3152 3153 3153 3154 3154 3154 3154 3154 3154 3154 3155 3156 3157 3158 3159 3160 3161 3162 3164 3165 3166 3166 3167 3168 3168 3169 3169 3170 3171 3171 3172 3174 3175 3176 3178 3179 3179 3180 3180 3180 3180 3181 3181 3181 3181 3180 3180 3180 3179 3179 3179 3178 3178 3178 3178 3178 3177 3177 3176 3176 3175 3175
3142 3144 3146 3146 3146 3147 3148 3148 3148 3149 3149 3150 3151 3151 3150 3149 3149 3148 3148 3148 3149 3150 3151 3151 3152 3152 3153 3153 3153 3153 3154 3153 3153 3153 3154 3155 3156 3156 3157 3158 3159 3161 3162 3163 3164 3164 3165 3166 3167 3167 3168 3169 3169 3170 3171 3173 3174 3175 3176 3177 3178 3179 3179 3179 3179 3179 3179 3179 3179 3179 3179 3178 3178 3178 3177 3177 3177 3177 3176 3176 3176 3175 3174 3174 3174
3141 3142 3142 3143 3144 3145 3146 3147 3147 3147 3148 3148 3149 3149 3149 3148 3147 3147 3147 3147 3148 3149 3150 3150 3151 3151 3151 3151 3151 3151 3152 3153 3152 3152 3152 3153 3154 3154 3155 3156 3157 3158 3159 3160 3161 3162 3163 3164 3165 3165 3166 3166 3167 3168 3169 3170 3172 3173 3174 3175 3176 3177 3177 3177 3178 3178 3178 3178 3178 3177 3177 3177 3177 3177 3176 3176 3176 3175 3175 3175 3174 3174 3173 3173 3173
3141 3141 3140 3141 3142 3143 3144 3145 3145 3146 3146 3146 3147 3147 3147 3146 3146 3145 3146 3146 3147 3148 3149 3149 3150 3150 3150 3151 3150 3149 3150 3151 3151 3152 3152 3152 3152 3153 3153 3154 3154 3155 3156 3157 3158 3159 3160 3161 3162 3163 3164 3164 3165 3166 3166 3168 3169 3170 3171 3172 3173 3174 3175 3175 3176 3176 3176 3176 3176 3176 3176 3176 3175 3175 3175 3175 3174 3174 3174 3173 3173 3173 3172 3172 3171
3139 3140 3139 3140 3142 3142 3143 3143 3144 3144 3144 3144 3144 3144 3144 3144 3144 3144 3145 3146 3146 3147 3147 3148 3149 3149 3149 3150 3149 3149 3149 3150 3150 3151 3151 3151 3151 3151 3151 3151 3152 3153 3154 3154 3155 3156 3158 3158 3159 3160 3161 3161 3162 3163 3164 3165 3166 3168 3169 3170 3170 3171 3172 3173 3174 3174 3174 3174 3174 3174 3174 3174 3174 3174 3173 3173 3173 3172 3172 3172 3172 3171 3171 3170 3170
3136 3137 3138 3140 3141 3142 3142 3142 3142 3142 3142 3143 3143 3142 3142 3142 3142 3143 3143 3144 3145 3146 3146 3147 3147 3148 3148 3149 3149 3149 3149 3149 3150 3150 3150 3150 3150 3150 3150 3150 3150 3151 3151 3152 3153 3154 3155 3155 3156 3157 3158 3159 3159 3160 3161 3163 3164 3164 3166 3167 3168 3169 3169 3170 3171 3172 3172 3172 3172 3172 3172 3172 3172 3172 3172 3171 3171 3171 3171 3170 3170 3170 3169 3168 3168
3134 3135 3136 3138 3139 3140 3140 3140 3141 3140 3140 3141 3141 3141 3141 3141 3141 3141 3142 3143 3144 3145 3145 3145 3146 3146 3147 3148 3148 3148 3148 3149 3149 3149 3149 3149 3149 3149 3149 3149 3148 3149 3149 3150 3151 3152 3152 3153 3154 3154 3155 3156 3157 3158 3159 3160 3161 3162 3163 3164 3165 3166 3167 3168 3169 3170 3170 3170 3170 3170 3170 3170 3170 3170 3170 3169 3169 3169 3169 3168 3168 3168 3167 3167 3166
3134 3134 3135 3135 3136 3137 3138 3138 3139 3139 3139 3139 3140 3140 3139 3139 3139 3140 3141 3142 3143 3143 3143 3143 3144 3144 3145 3146 3146 3147 3148 3148 3148 3148 3148 3148 3148 3148 3148 3148 3147 3147 3147 3148 3149 3149 3150 3151 3151 3151 3151 3153 3155 3156 3157 3158 3159 3160 3161 3162 3163 3164 3165 3165 3166 3167 3168 3168 3168 3168 3168 3169 3168 3168 3168 3168 3167 3167 3166 3166 3166 3166 3166 3165 3164
3133 3133 3134 3134 3134 3134 3134 3135 3136 3136 3136 3137 3138 3138 3138 3137 3137 3138 3139 3140 3141 3142 3141 3142 3143 3144 3144 3145 3145 3146 3147 3147 3147 3147 3147 3146 3146 3146 3146 3146 3146 3146 3145 3145 3146 3147 3148 3148 3149 3149 3149 3150 3151 3153 3154 3156 3157 3158 3159 3160 3161 3162 3162 3163 3164 3164 3165 3165 3166 3166 3166 3166 3166 3166 3166 3166 3165 3165 3164 3164 3164 3164 3164 3163 3162
3131 3131 3132 3133 3133 3132 3132 3132 3133 3133 3134 3134 3135 3136 3136 3136 3136 3136 3137 3138 3139 3140 3140 3141 3142 3143 3143 3143 3144 3145 3145 3146 3145 3145 3145 3145 3145 3145 3145 3145 3145 3144 3144 3143 3144 3145 3145 3146 3147 3148 3148 3148 3149 3150 3151 3152 3154 3156 3156 3157 3158 3159 3160 3161 3161 3162 3162 3163 3163 3164 3164 3164 3164 3164 3164 3164 3163 3163 3162 3162 3162 3162 3161 3161 3160
3130 3130 3130 3130 3130 3130 3130 3130 3130 3131 3131 3132 3132 3133 3133 3134 3135 3135 3136 3137 3138 3139 3139 3140 3141 3142 3141 3142 3143 3143 3144 3144 3144 3143 3143 3143 3143 3143 3143 3143 3143 3143 3142 3142 3141 3142 3142 3143 3144 3144 3146 3147 3148 3149 3149 3149 3151 3153 3154 3155 3155 3156 3157 3158 3159 3159 3160 3160 3161 3161 3161 3161 3161 3161 3161 3161 3161 3161 3160 3160 3160 3160 3159 3158 3158
3130 3129 3129 3129 3129 3129 3128 3128 3128 3128 3129 3129 3130 3130 3131 3132 3133 3134 3135 3136 3137 3138 3138 3139 3140 3140 3140 3141 3141 3142 3142 3143 3143 3142 3142 3142 3142 3142 3142 3142 3142 3141 3141 3140 3140 3139 3139 3140 3141 3141 3142 3144 3146 3147 3148 3148 3149 3150 3151 3152 3152 3153 3154 3155 3156 3156 3157 3158 3158 3158 3159 3159 3159 3159 3159 3159 3159 3159 3159 3158 3158 3158 3157 3157 3156
3129 3129 3128 3128 3128 3128 3128 3127 3127 3127 3127 3128 3128 3129 3129 3130 3131 3132 3133 3134 3135 3136 3137 3138 3138 3138 3139 3139 3140 3140 3141 3141 3141 3141 3141 3141 3141 3141 3140 3140 3140 3140 3139 3139 3138 3138 3138 3137 3138 3138 3139 3141 3142 3144 3145 3145 3145 3146 3146 3148 3149 3150 3151 3152 3153 3153 3154 3155 3155 3155 3156 3157 3157 3157 3157 3157 3157 3157 3157 3156 3156 3156 3156 3155 3155
3128 3128 3128 3127 3127 3128 3127 3127 3127 3126 3127 3127 3127 3128 3128 3128 3129 3130 3132 3133 3134 3135 3136 3137 3137 3137 3138 3139 3139 3139 3140 3140 3140 3140 3140 3139 3139 3139 3139 3139 3139 3139 3138 3138 3138 3138 3137 3136 3136 3136 3137 3137 3138 3141 3141 3141 3142 3142 3142 3144 3145 3146 3148 3149 3149 3150 3151 3152 3152 3153 3153 3154 3154 3154 3154 3154 3154 3154 3155 3155 3154 3154 3154 3154 3154
3127 3127 3127 3127 3127 3127 3127 3127 3127 3127 3127 3127 3127 3127 3128 3128 3128 3129 3130 3131 3132 3134 3135 3136 3136 3137 3137 3137 3138 3138 3138 3138 3138 3138 3138 3138 3138 3138 3138 3138 3138 3137 3137 3137 3137 3136 3135 3134 3133 3133 3134 3134 3135 3138 3139 3139 3140 3141 3141 3142 3143 3143 3144 3146 3146 3147 3148 3149 3149 3150 3150 3151 3151 3152 3152 3152 3152 3152 3153 3153 3153 3153 3152 3152 3152
3126 3126 3126 3127 3127 3127 3127 3127 3127 3127 3127 3127 3127 3128 3128 3128 3128 3129 3129 3130 3132 3133 3134 3135 3135 3136 3136 3136 3137 3137 3137 3137 3137 3137 3137 3137 3137 3137 3137 3137 3136 3136 3135 3135 3135 3134 3133 3132 3132 3131 3131 3131 3133 3135 3136 3136 3137 3138 3139 3140 3141 3141 3140 3141 3143 3144 3145 3146 3146 3147 3147 3147 3148 3149 3149 3149 3150 3150 3151 3151 3151 3151 3150 3151 3151
3126 3126 3126 3126 3126 3126 3127 3127 3127 3127 3127 3128 3128 3128 3128 3128 3128 3129 3130 3130 3131 3132 3133 3134 3134 3135 3135 3135 3136 3136 3136 3136 3136 3136 3136 3136 3135 3135 3135 3135 3135 3134 3134 3133 3133 3132 3132 3132 3132 3131 3130 3130 3131 3132 3133 3134 3135 3136 3136 3137 3137 3137 3136 3136 3138 3140 3141 3143 3143 3144 3145 3145 3145 3146 3147 3147 3147 3148 3148 3148 3148 3148 3148 3149 3149
3126 3126 3127 3127 3127 3127 3127 3127 3127 3127 3128 3128 3128 3128 3128 3129 3129 3129 3130 3131 3131 3132 3133 3133 3134 3134 3134 3135 3135 3135 3135 3135 3135 3135 3135 3135 3135 3135 3135 3135 3135 3134 3133 3132 3131 3131 3131 3132 3132 3131 3130 3130 3130 3131 3132 3133 3133 3133 3133 3133 3133 3133 3132 3131 3134 3137 3138 3140 3141 3142 3143 3143 3143 3143 3144 3144 3144 3145 3145 3145 3145 3145 3146 3146 3146
3127 3127 3127 3127 3127 3128 3128 3128 3128 3128 3128 3128 3128 3128 3129 3129 3129 3130 3130 3131 3132 3132 3133 3133 3133 3133 3134 3134 3134 3135 3135 3135 3135 3135 3135 3135 3135 3135 3134 3134 3134 3133 3133 3132 3131 3131 3131 3131 3132 3131 3131 3131 3131 3131 3132 3132 3132 3131 3131 3131 3131 3133 3131 3130 3132 3134 3136 3138 3140 3140 3140 3141 3141 3141 3140 3139 3140 3142 3142 3141 3141 3142 3143 3144 3144
3128 3128 3128 3129 3129 3129 3128 3129 3129 3129 3129 3129 3129 3130 3130 3130 3130 3131 3131 3131 3132 3132 3132 3133 3133 3133 3133 3134 3134 3134 3134 3134 3134 3134 3134 3134 3134 3134 3133 3133 3133 3132 3132 3131 3131 3131 3131 3131 3131 3131 3132 3131 3131 3131 3131 3131 3131 3130 3131 3131 3132 3132 3131 3131 3132 3133 3134 3136 3137 3137 3138 3138 3138 3138 3138 3137 3138 3140 3139 3138 3139 3140 3141 3141 3141
3130 3129 3129 3129 3130 3130 3130 3130 3130 3130 3130 3131 3131 3131 3131 3132 3132 3132 3132 3133 3133 3133 3133 3133 3133 3134 3134 3134 3134 3134 3134 3134 3134 3134 3134 3133 3133 3133 3132 3132 3132 3131 3131 3131 3131 3131 3131 3131 3131 3131 3131 3131 3131 3131 3131 3130 3130 3130 3130 3130 3130 3130 3130 3130 3131 3131 3132 3133 3133 3134 3135 3135 3136 3136 3136 3136 3136 3137 3137 3136 3136 3137 3137 3138 3138
3131 3130 3130 3130 3131 3131 3131 3131 3131 3131 3131 3132 3132 3132 3133 3133 3134 3134 3134 3134 3134 3134 3135 3135 3135 3135 3135 3135 3135 3135 3135 3134 3134 3134 3134 3133 3133 3132 3132 3132 3131 3131 3131 3131 3131 3131 3131 3131 3131 3131 3131 3130 3130 3130 3129 3129 3129 3129 3129 3129 3129 3129 3128 3128 3128 3128 3129 3129 3130 3130 3131 3132 3133 3133 3133 3133 3133 3133 3133 3133 3134 3134 3135 3135 3135
3132 3131 3131 3131 3131 3131 3131 3132 3132 3132 3132 3132 3133 3133 3134 3134 3135 3135 3136 3136 3136 3136 3136 3136 3136 3136 3136 3136 3136 3135 3135 3135 3135 3134 3134 3133 3133 3132 3132 3131 3131 3131 3130 3130 3130 3130 3130 3130 3130 3130 3130 3130 3129 3129 3128 3128 3128 3128 3128 3128 3127 3127 3127 3127 3126 3126 3126 3126 3127 3127 3128 3129 3130 3130 3130 3130 3130 3130 3130 3130 3130 3131 3132 3132 3133
3132 3132 3132 3132 3132 3132 3132 3132 3132 3133 3133 3133 3133 3134 3134 3135 3135 3136 3136 3137 3137 3137 3137 3137 3137 3137 3137 3137 3136 3136 3136 3136 3135 3135 3134 3133 3133 3132 3132 3131 3131 3131 3130 3130 3130 3130 3130 3130 3130 3129 3129 3129 3128 3128 3128 3127 3126 3126 3126 3126 3126 3125 3125 3125 3124 3124 3124 3124 3125 3125 3126 3126 3127 3127 3127 3127 3127 3127 3127 3127 3127 3127 3128 3129 3130
3133 3133 3132 3132 3132 3132 3133 3133 3133 3133 3133 3134 3134 3134 3134 3135 3135 3136 3136 3137 3137 3137 3137 3137 3137 3137 3137 3137 3137 3136 3136 3136 3135 3135 3134 3133 3133 3132 3132 3131 3131 3131 3131 3130 3130 3130 3129 3129 3129 3128 3128 3128 3127 3127 3126 3126 3125 3125 3125 3125 3124 3124 3124 3123 3123 3123 3123 3123 3123 3123 3123 3124 3124 3125 3125 3124 3124 3124 3124 3124 3124 3124 3125 3125 3126
3132 3132 3133 3133 3133 3133 3133 3133 3134 3134 3134 3134 3134 3134 3135 3135 3135 3135 3136 3136 3136 3137 3137 3137 3137 3137 3137 3136 3136 3136 3136 3135 3135 3134 3134 3133 3133 3132 3132 3131 3131 3130 3130 3130 3129 3129 3129 3128 3128 3127 3127 3126 3125 3125 3125 3125 3124 3124 3124 3123 3123 3123 3123 3122 3122 3121 3121 3121 3121 3121 3121 3121 3121 3121 3121 3121 3121 3121 3121 3121 3121 3121 3122 3122 3123
3131 3131 3132 3132 3132 3133 3133 3134 3134 3134 3134 3134 3135 3135 3135 3135 3135 3135 3135 3135 3135 3136 3136 3136 3136 3136 3136 3136 3136 3135 3135 3135 3134 3134 3133 3133 3132 3132 3131 3131 3130 3130 3130 3129 3129 3128 3128 3127 3127 3126 3125 3125 3124 3123 3123 3123 3122 3122 3122 3122 3122 3122 3122 3121 3121 3120 3119 3119 3119 3119 3119 3119 3119 3118 3118 3118 3118 3118 3118 3118 3118 3118 3118 3119 3119
3129 3130 3131 3131 3131 3132 3132 3133 3133 3134 3134 3134 3135 3135 3135 3135 3135 3135 3134 3134 3134 3134 3135 3135 3135 3135 3135 3135 3135 3134 3134 3134 3133 3133 3132 3132 3132 3131 3130 3130 3129 3129 3128 3128 3128 3127 3127 3126 3125 3124 3124 3123 3122 3121 3121 3120 3120 3120 3120 3120 3120 3120 3120 3120 3119 3118 3118 3117 3117 3117 3117 3117 3116 3116 3116 3116 3115 3116 3116 3116 3115 3115 3115 3115 3116
3127 3128 3129 3129 3130 3131 3131 3132 3132 3132 3133 3134 3134 3135 3135 3135 3135 3135 3134 3133 3133 3133 3133 3133 3133 3133 3133 3133 3133 3133 3132 3132 3131 3131 3131 3130 3130 3129 3129 3128 3128 3127 3126 3126 3125 3125 3125 3124 3123 3123 3122 3121 3120 3119 3119 3118 3118 3118 3118 3118 3117 3117 3117 3117 3117 3116 3116 3115 3115 3114 3114 3114 3114 3114 3113 3113 3113 3113 3113 3112 3112 3112 3112 3112 3112
3124 3125 3126 3127 3128 3129 3129 3130 3130 3131 3131 3132 3133 3134 3134 3134 3134 3134 3133 3133 3132 3132 3132 3132 3132 3132 3131 3131 3131 3131 3130 3130 3129 3129 3128 3128 3127 3127 3127 3126 3125 3125 3124 3123 3122 3122 3122 3122 3121 3120 3120 3119 3118 3117 3116 3116 3115 3115 3115 3115 3115 3114 3114 3114 3114 3114 3113 3113 3112 3111 3111 3111 3111 3111 3111 3110 3110 3110 3109 3109 3109 3109 3109 3109 3109
3121 3122 3123 3124 3125 3126 3127 3127 3128 3129 3129 3130 3131 3132 3133 3133 3133 3133 3133 3132 3131 3131 3130 3130 3130 3130 3130 3129 3129 3129 3129 3128 3127 3127 3126 3126 3125 3125 3124 3124 3123 3122 3121 3121 3120 3119 3118 3118 3118 3118 3117 3116 3115 3114 3113 3113 3113 3112 3112 3112 3111 3111 3111 3111 3110 3109 3109 3109 3109 3108 3108 3108 3108 3108 3107 3107 3107 3106 3106 3106 3106 3106 3105 3105 3105
3118 3119 3121 3121 3122 3122 3123 3124 3125 3126 3127 3127 3127 3129 3129 3129 3129 3130 3130 3130 3130 3129 3129 3128 3128 3128 3128 3128 3127 3127 3127 3126 3125 3125 3124 3123 3123 3122 3121 3121 3120 3119 3119 3118 3117 3116 3116 3115 3114 3114 3114 3113 3112 3111 3110 3109 3109 3108 3108 3108 3108 3107 3107 3107 3106 3105 3104 3104 3105 3105 3105 3104 3104 3103 3103 3103 3103 3103 3103 3103 3103 3102 3102 3102 3102
3115 3117 3118 3118 3119 3120 3120 3121 3122 3123 3123 3123 3124 3124 3124 3124 3124 3125 3127 3128 3128 3127 3126 3126 3126 3126 3125 3125 3125 3125 3125 3124 3123 3122 3121 3121 3120 3119 3118 3117 3117 3116 3116 3115 3114 3113 3113 3112 3111 3111 3110 3109 3108 3107 3106 3106 3105 3105 3104 3104 3104 3104 3103 3103 3102 3101 3100 3100 3101 3101 3100 3099 3100 3100 3099 3099 3099 3099 3099 3099 3099 3099 3098 3098 3098
3112 3114 3116 3116 3117 3117 3118 3119 3120 3120 3120 3120 3120 3120 3120 3120 3120 3121 3122 3124 3125 3124 3124 3124 3124 3123 3123 3123 3123 3122 3121 3121 3120 3119 3119 3118 3117 3115 3114 3114 3113 3113 3112 3111 3111 3110 3109 3108 3107 3107 3106 3106 3104 3103 3103 3102 3101 3101 3100 3100 3100 3100 3100 3099 3098 3096 3096 3096 3097 3097 3096 3095 3095 3096 3095 3095 3095 3094 3095 3095 3095 3095 3095 3094 3095
3109 3111 3113 3113 3114 3115 3115 3116 3117 3118 3118 3119 3119 3118 3118 3118 3118 3118 3119 3120 3121 3121 3121 3121 3121 3120 3120 3120 3120 3119 3118 3118 3117 3116 3116 3115 3113 3112 3111 3111 3110 3109 3109 3108 3107 3106 3105 3104 3104 3103 3102 3102 3100 3100 3099 3098 3097 3096 3096 3095 3095 3095 3095 3095 3095 3092 3091 3091 3092 3093 3092 3091 3091 3091 3091 3091 3090 3090 3090 3090 3090 3090 3090 3090 3090
3108 3109 3110 3111 3111 3112 3113 3114 3114 3115 3116 3117 3117 3117 3117 3117 3116 3116 3117 3117 3118 3118 3118 3117 3117 3117 3117 3117 3117 3116 3115 3115 3114 3113 3113 3112 3111 3109 3108 3108 3107 3106 3106 3105 3103 3102 3101 3100 3100 3099 3098 3098 3097 3096 3095 3094 3093 3092 3092 3091 3090 3090 3089 3090 3091 3090 3087 3086 3087 3088 3089 3087 3085 3086 3086 3086 3085 3085 3085 3085 3085 3085 3086 3086 3086
3107 3107 3108 3109 3109 3110 3111 3112 3112 3113 3113 3114 3114 3115 3115 3115 3114 3114 3115 3115 3115 3115 3115 3114 3114 3114 3114 3114 3113 3113 3112 3112 3111 3110 3109 3109 3108 3107 3106 3105 3104 3104 3103 3101 3100 3098 3097 3096 3096 3095 3094 3094 3093 3092 3091 3090 3089 3089 3088 3087 3085 3085 3084 3083 3085 3086 3084 3082 3081 3082 3083 3083 3081 3080 3081 3081 3081 3080 3080 3080 3081 3081 3081 3081 3081
3105 3106 3106 3107 3107 3108 3109 3109 3110 3110 3111 3111 3112 3112 3112 3112 3112 3112 3112 3112 3112 3112 3111 3111 3111 3111 3111 3110 3110 3109 3109 3109 3108 3107 3106 3106 3105 3105 3103 3102 3101 3101 3099 3098 3096 3095 3093 3092 3092 3091 3090 3089 3089 3088 3087 3085 3085 3085 3085 3084 3082 3080 3080 3079 3079 3080 3080 3079 3076 3076 3078 3078 3077 3075 3076 3077 3076 3075 3074 3075 3075 3076 3077 3077 3077
3103 3104 3105 3105 3105 3106 3106 3107 3107 3108 3108 3108 3108 3108 3108 3108 3108 3108 3108 3108 3108 3108 3107 3107 3107 3108 3107 3107 3106 3105 3106 3106 3105 3103 3102 3102 3102 3101 3100 3099 3098 3096 3095 3094 3092 3091 3089 3088 3088 3088 3087 3085 3084 3084 3082 3080 3080 3080 3079 3079 3079 3077 3076 3075 3074 3074 3075 3073 3071 3070 3071 3074 3073 3070 3071 3073 3072 3070 3068 3069 3070 3071 3071 3071 3071
3101 3101 3101 3101 3102 3102 3102 3103 3103 3104 3104 3104 3104 3104 3104 3104 3104 3104 3104 3104 3104 3103 3103 3103 3103 3103 3103 3103 3103 3102 3102 3102 3100 3099 3098 3098 3098 3097 3096 3095 3093 3092 3091 3090 3088 3087 3086 3085 3084 3084 3083 3081 3080 3079 3078 3076 3074 3073 3073 3072 3073 3072 3071 3071 3070 3070 3070 3069 3065 3062 3063 3067 3068 3066 3066 3067 3067 3065 3064 3064 3064 3065 3065 3065 3065
3096 3097 3097 3097 3097 3098 3098 3099 3100 3100 3100 3100 3100 3100 3100 3100 3100 3100 3100 3100 3100 3100 3099 3099 3098 3098 3099 3099 3098 3098 3097 3097 3096 3095 3094 3094 3093 3092 3091 3090 3089 3088 3087 3086 3084 3082 3081 3080 3080 3079 3079 3078 3076 3075 3074 3072 3070 3068 3067 3066 3065 3065 3064 3065 3065 3066 3066 3065 3062 3058 3056 3059 3061 3060 3059 3060 3061 3060 3059 3059 3059 3059 3059 3059 3060
3092 3093 3093 3093 3093 3094 3095 3096 3096 3096 3097 3096 3096 3096 3096 3096 3096 3096 3096 3096 3096 3096 3096 3095 3095 3094 3094 3094 3094 3093 3093 3092 3092 3091 3090 3089 3088 3087 3086 3085 3084 3083 3082 3081 3079 3078 3077 3076 3075 3074 3074 3073 3072 3070 3069 3068 3066 3064 3062 3061 3060 3059 3057 3056 3058 3060 3060 3060 3058 3055 3051 3052 3054 3054 3052 3052 3053 3054 3054 3053 3053 3054 3054 3053 3053
3089 3089 3090 3090 3090 3091 3092 3092 3093 3093 3094 3093 3093 3093 3093 3093 3093 3092 3092 3092 3092 3092 3091 3091 3091 3091 3090 3090 3090 3090 3089 3088 3087 3086 3085 3084 3083 3082 3081 3079 3078 3078 3077 3076 3075 3073 3073 3072 3070 3069 3068 3067 3066 3065 3064 3063 3062 3060 3057 3055 3055 3054 3052 3050 3050 3051 3053 3054 3053 3051 3047 3046 3047 3048 3047 3046 3046 3046 3046 3047 3047 3048 3048 3048 3047
3085 3086 3086 3087 3088 3088 3089 3089 3090 3090 3090 3090 3090 3090 3090 3090 3089 3089 3089 3088 3088 3087 3087 3087 3087 3087 3087 3086 3086 3085 3084 3083 3082 3081 3080 3079 3078 3077 3076 3074 3073 3073 3072 3070 3069 3069 3068 3067 3065 3064 3062 3061 3060 3059 3058 3056 3055 3054 3052 3050 3049 3048 3046 3044 3043 3043 3044 3046 3046 3045 3042 3040 3040 3041 3041 3040 3040 3039 3039 3039 3040 3041 3040 3041 3042
3082 3082 3083 3084 3084 3085 3086 3086 3086 3087 3087 3087 3087 3087 3087 3086 3086 3086 3085 3085 3084 3084 3083 3083 3083 3082 3082 3081 3081 3080 3080 3079 3078 3077 3076 3075 3074 3072 3071 3070 3069 3068 3067 3066 3065 3064 3063 3062 3060 3058 3057 3055 3053 3052 3051 3050 3049 3048 3047 3045 3043 3041 3039 3039 3037 3036 3036 3038 3039 3038 3036 3034 3033 3033 3033 3032 3033 3034 3034 3032 3032 3033 3033 3033 3034